Hourly Data Report for October 03, 2017

All times are specified in Local Standard Time (LST). Add 1 hour to adjust for Daylight Saving Time where and when it is observed.

KEJIMKUJIK 1
NOVA SCOTIA

44°24'11.020" N
65°12'11.070" W
125.00 m
8202592
71599
WKG

Download Data

Hourly Data (October 2017)
Hourly Data Report for October 3, 2017
Temp Definition
°C
Dew Point Temp Definition
°C
Rel Hum Definition
%
Wind Dir Definition
10's deg

Wind Spd Definition
km/h
Visibility Definition
km
Stn Press Definition
kPa
Hmdx Definition


Wind Chill Definition


Weather Definition


TIME
00:00 1.9 0.7 92 36 3   101.86     LegendNANA
01:00 0.9 -0.2 92 4 5   101.86     LegendNANA
02:00 0.8 -0.1 94 33 4   101.89     LegendNANA
03:00 0.8 -0.1 94 34 5   101.92     LegendNANA
04:00 0.5 -0.2 95 4 5   101.96     LegendNANA
05:00 0.5 -0.1 95 33 5   102.01     LegendNANA
06:00 0.6 0.0 96 33 6   102.09     LegendNANA
07:00 1.0 0.4 96 32 4   102.17     LegendNANA
08:00 3.8 2.6 92 32 2   102.18     LegendNANA
09:00 8.2 5.6 83 1 3   102.19     LegendNANA
10:00 11.4 5.1 65 33 4   102.24     LegendNANA
11:00 12.3 2.0 50 29 3   102.15     LegendNANA
12:00 13.3 2.7 49 26 7   102.15     LegendNANA
13:00 14.9 2.2 42 33 8   102.07     LegendNANA
14:00 15.1 2.4 42 34 6   102.04     LegendNANA
15:00 13.9 2.6 46 34 4   101.96     LegendNANA
16:00 13.1 3.0 50 32 5   101.87     LegendNANA
17:00 11.9 3.7 57 34 5   101.87     LegendNANA
18:00 10.4 5.1 70 29 5   101.77     LegendNANA
19:00 9.3 4.8 74 28 6   101.76     LegendNANA
20:00 8.6 4.6 76 28 6   101.75     LegendNANA
21:00 7.6 5.0 83 27 6   101.71     LegendNANA
22:00 8.2 5.7 84 26 6   101.66     LegendNANA
23:00 7.3 5.3 87 26 5   101.63     LegendNANA

Notes on Data Quality.

Legend

  • E = Estimated
  • M = Missing
  • NA = Not Available
  • ‡ = Partner data that is not subject to review by the National Climate Archives
Date modified: